Home   Weather   Roskilde   Past weeks

Flag for Denmark Past Weather in Roskilde, Denmark — Yesterday and Last 2 Weeks

Now
61 °F

Sprinkles. Mostly cloudy.


Feels Like: 61 °F
Forecast: 52 / 67 °F
Wind: 14 mph from Southeast

Location: Koebenhavn / Roskilde

Current Time: Jul 23, 2017 at 4:51:09 pm

Latest Report: Jul 23, 2017 at 3:50 pm


Visibility: 3 mi

Pressure: 29.89 "Hg

Humidity: 100%

Dew Point: 61 °F

Location of RoskildeLocation

Past Weather in Roskilde — Graph

°F

Roskilde Temperature Yesterday

Maximum temperature yesterday: 68 °F (at 1:50 pm)
Minimum temperature yesterday: 59 °F (at 12:20 am)
Average temperature yesterday: 63 °F

High & Low Weather Summary for the Past Weeks

 TemperatureHumidityPressure
High72 °F (Jul 8, 3:20 pm)100% (Jul 10, 11:20 pm)30.15 "Hg (Jul 10, 11:20 pm)
Low43 °F (Jul 15, 5:50 am)36% (Jul 15, 4:50 pm)29.71 "Hg (Jul 11, 6:50 pm)
Average60 °F79%29.96 "Hg
* Reported Jul 8 3:20 pm — Jul 23 3:50 pm, Roskilde. Weather by CustomWeather, © 2017

Note: Actual official high and low records may vary slightly from our data, if they occured in-between our weather recording intervals... More about our weather records

Advertising

Roskilde Weather History for the Previous 24 Hours

Scroll right to see more
 ConditionsComfort  
Time TempWeatherWind HumidityBarometerVisibility
3:50 pm
Sun, Jul 23
61 °FSprinkles. Mostly cloudy.14 mph100%29.89 "Hg3 mi
3:21 pm61 °FSprinkles. Mostly cloudy.14 mph100%29.89 "Hg3 mi
2:50 pm61 °FThunderstorms. Cloudy.14 mph100%29.89 "Hg1 mi
2:35 pm61 °FThunderstorms. Cloudy.15 mph94%29.89 "Hg1 mi
2:20 pm61 °FThunderstorms. Cloudy.14 mph94%29.89 "Hg1 mi
1:50 pm61 °FThunderstorms. Cloudy.14 mph94%29.89 "Hg2 mi
1:20 pm63 °FThunderstorms. Broken clouds.15 mph88%29.89 "Hg4 mi
12:50 pm63 °FThunderstorms. Broken clouds.16 mph88%29.89 "HgN/A
12:20 pm63 °FPartly sunny.14 mph88%29.89 "HgN/A
11:50 am64 °FPartly sunny.17 mph83%29.89 "HgN/A
11:20 am64 °FPartly sunny.15 mph83%29.89 "HgN/A
10:51 am63 °FPartly sunny.15 mph88%29.89 "HgN/A
10:20 am64 °FPartly sunny.15 mph83%29.89 "HgN/A
9:50 am63 °FBroken clouds.14 mph88%29.89 "HgN/A
9:20 am63 °FPartly sunny.13 mph83%29.92 "HgN/A
8:50 am61 °FPartly sunny.13 mph88%29.89 "HgN/A
7:50 am59 °FRain showers. Partly sunny.12 mph94%29.92 "HgN/A
7:20 am59 °FHeavy rain. Partly sunny.9 mph88%29.92 "Hg5 mi
6:50 am61 °FPartly sunny.7 mph77%29.95 "HgN/A
6:20 am61 °FBroken clouds.12 mph72%29.92 "HgN/A
5:50 am61 °FBroken clouds.12 mph72%29.92 "HgN/A
5:20 am61 °FMostly cloudy.13 mph72%29.95 "HgN/A
4:50 am63 °FPassing clouds.14 mph68%29.95 "HgN/A
4:20 am61 °FMostly cloudy.13 mph72%29.95 "HgN/A
3:20 am61 °FPassing clouds.12 mph77%29.98 "HgN/A
2:50 am61 °FPassing clouds.12 mph77%29.98 "HgN/A
2:20 am61 °FOvercast.10 mph77%29.98 "HgN/A
1:50 am61 °FMostly cloudy.10 mph72%30.01 "HgN/A
1:20 am61 °FLight rain. Passing clouds.10 mph77%30.01 "HgN/A
12:50 am61 °FPassing clouds.10 mph72%30.01 "HgN/A
12:20 am61 °FOvercast.10 mph72%30.01 "HgN/A
11:50 pm
Sat, Jul 22
61 °FOvercast.10 mph72%30.01 "HgN/A
11:20 pm63 °FMostly cloudy.9 mph73%30.01 "HgN/A
10:50 pm63 °FMostly cloudy.9 mph73%30.04 "HgN/A
10:20 pm63 °FMostly cloudy.12 mph68%30.04 "HgN/A
9:50 pm63 °FOvercast.10 mph73%30.04 "HgN/A
9:20 pm63 °FPartly sunny.9 mph73%30.04 "HgN/A
8:50 pm64 °FPartly sunny.9 mph68%30.04 "HgN/A
8:20 pm64 °FPartly sunny.10 mph68%30.04 "HgN/A
7:50 pm64 °FPartly sunny.10 mph68%30.04 "HgN/A
7:20 pm64 °FPartly sunny.9 mph73%30.01 "HgN/A
6:50 pm66 °FPartly sunny.13 mph68%30.01 "HgN/A
6:20 pm64 °FBroken clouds.9 mph73%30.01 "HgN/A
5:50 pm64 °FPartly sunny.9 mph73%30.04 "HgN/A
5:20 pm64 °FPartly sunny.10 mph78%30.04 "HgN/A
4:50 pm64 °FPartly sunny.14 mph73%30.04 "HgN/A
4:20 pm66 °FPartly sunny.15 mph73%30.04 "HgN/A
Weather by CustomWeather, © 2017

See weather overviewHow to use our weather pages